Погода в Сидмуте

Великобритания     50°41′30″N   3°14′36″W
темп.,
°C
ветер,
м/с
пор.,
м/с
влажн.,
%
обл.,
%
осадки,
мм/ч
давл.,
гПа
погр.,
м
2 июля, сб
сб201:00+10юз4109443 0.0 1019283
04:00+12ююз51092100 0.0 1018405
07:00+14ююз71189100 0.1 1017750
10:00+15юз7109284 0.9 1018731
13:00+18зюз696594 2.2 10171594
16:00+17з5764100 0.3 1017884
19:00+16з576517 0.4 1018893
22:00+11з37900 0.0 1019150
3 июля, вс
вс301:00+10юз34943 0.0 1019103
04:00+10зюз239664 0.0 101876
07:00+13зсз49910 0.0 1019466
10:00+17зсз676623 0.0 10201104
13:00+18сз676080 0.1 10211340
16:00+18сз775654 0.1 10211418
19:00+16сз566495 0.1 1021894
22:00+11зсз379049 0.0 1023132
4 июля, пн
пн401:00+9зсз359424 0.0 1023100
04:00+9зсз2295100 0.0 102334
07:00+12з27905 0.0 1023219
10:00+17зсз457064 0.0 10231078
13:00+17зсз566481 0.1 1023974
16:00+20зсз665322 0.0 10231650
19:00+16сз66635 0.0 1023905
22:00+11сз37840 0.0 1025139
5 июля, вт
вт501:00+9сз34910 0.0 102665
04:00+9сз22900 0.0 102628
07:00+11ссз22830 0.0 102783
10:00+16ссз23630 0.0 1028925
13:00+19сз34510 0.0 10281284
16:00+20ссз34520 0.0 10281112
19:00+19ссз45652 0.0 1027836
22:00+13сз37860 0.0 1029125
6 июля, ср
ср601:00+12ссз33934 0.0 102955
04:00+12ссз22935 0.0 102835
07:00+15ссз23895 0.0 1028119
10:00+20с466836 0.0 1028956
13:00+22с456198 0.1 10281317
16:00+22с446599 0.2 10271151
19:00+21ссз567263 0.4 1028667
22:00+18ссз477962 0.0 1029219